星链-5843 (STARLINK-5843 )

导读

STARLINK-5843是美国太空探索技术公司(SpaceX)星链(Starlink)星座的卫星,星链计划旨在构建全球卫星互联网系统。STARLINK-5843于2023年6月22日发射,加入到星链低轨卫星星座组网,为全球不同区域提供宽带互联网接入服务,推进星链星座全球覆盖的部署进程。

基本信息
目录编号:
57072
目录名称:
STARLINK-5843
国际标识:
2023-088AA
轨道中心:
EARTH
卫星名称:
星链-5843
卫星全名:
星链-5843 (STARLINK-5843 )
卫星状态:
在轨 (已飞行1170 天)
发射日期:
2023-06-22 UTC
国别 :
美国 (US)
星等 :
--
轨道信息
数据来源 国际轨道数据
星历时间: 2026-09-04T04:05:36+0800
18小时前
查看轨道信息
半长轴: 6861.202km
偏心率: 0.0001132
轨道倾角: 43.004°
近地点辐角 269.818°
升交点赤经 170.219°
平近点角 90.254°
近地点: 482.288km
远地点: 483.842km
周期: 94.267分钟
每日圈数: 15.275747
详细信息
固有亮度:
5
最大亮度:
2.4
卫星平台:
Starlink v1.5
覆盖范围:
全球
运营商:
太空探索技术公司
运营商所在国:
美国
制造商(研发单位):
太空探索技术公司
制造商所在国:
美国
使用方式:
暂无
卫星简介
星链(Starlink)计划是由太空探索技术公司(SpaceX)提出的一个巨型低轨卫星互联网星座项目,计划在2019年至2024年间在太空搭建由约1.2万颗卫星组成的“星链”网络,其中1584颗将部署在地球上空550千米处的近地轨道,并从2020年开始工作。该卫星仍在工作。
2D轨道图
3D轨道图
轨道高度分析图
轨道倾角分析图
轨道综合分析图
查看轨道综合分析图
交会数据列表
事件ID 空间交会对象 最接近时刻(TCA) 交会距离 交会风险概率(CRP) 交会风险指数(CRI) 操作
CDM_260906-103105-707206-108621
2026-09-06T
10:31:09+0000
1.271 km
极远距离
9.934885E-6 低风险 0.55
CDM_260827-230305-707206-397122
2026-08-27T
23:03:26+0000
1.869 km
极远距离
2.02108E-6 低风险 0.41